Location: Alafon
(8.4500°N, 4.2333°E)
Time: 22:53:55
(UTC+00:00)

ISS - Visible Passes

Search period start: 17 June 2021 00:00
Search period end: 27 June 2021 00:00
Orbit: 417 x 422 km, 51.6° (Epoch: 17 June)

Date Brightness Start Highest point End Pass type
(mag) Time Alt. Az. Time Alt. Az. Time Alt. Az.
18 Jun -2.1 04:21:43 13° S 04:24:10 29° SE 04:27:08 10° ENE visible
19 Jun -1.0 03:36:47 14° SE 03:36:48 14° SE 03:38:34 10° E visible
20 Jun -3.2 04:24:46 29° WSW 04:25:59 43° NW 04:29:11 10° NNE visible
21 Jun -2.4 03:39:41 39° NE 03:39:41 39° NE 03:41:56 10° NE visible
23 Jun -1.1 03:42:17 13° NNW 03:42:17 13° NNW 03:42:56 10° N visible
